859  
ASUS43 KTOP 241559  
RWRKS  
 
WEATHER ROUNDUP FOR KANSAS  
NATIONAL WEATHER SERVICE GOODLAND KS  
1100 AM CDT SUN OCT 24 2021  
 
NOTE: "FAIR" INDICATES FEW OR NO CLOUDS BELOW 12,000 FEET WITH NO  
SIGNIFICANT WEATHER AND/OR S TO VISIBILITY
.  
 
KSZ001>006-013>018-027>032-041>047-241700-  
NORTHWEST KANSAS  
 
CITY SKY/WX TMP DP RH WIND PRES REMARKS
 
GOODLAND SUNNY 56 42 59 NW20G28 29.84R  
HAYS PTSUNNY 54 48 80 NW21G30 29.70R  
HILL CITY LGT RAIN 52 47 83 NW18G28 29.75F  
RUSSELL CLOUDY 51 47 86 NW12G23 29.69R  

 
 
KSZ061>065-074>080-084>089-241700-  
SOUTHWEST KANSAS  
 
CITY SKY/WX TMP DP RH WIND PRES REMARKS
 
DODGE CITY CLOUDY 54 49 83 NW20G28 29.78R  
GARDEN CITY MOSUNNY 56 47 71 NW16 29.80R  
GREAT BEND CLOUDY 53 49 86 NW17G23 29.72R  
LIBERAL CLOUDY 57 47 69 NW14 29.86R  

 
 
KSZ066>073-081>083-090>101-241700-  
SOUTHEAST KANSAS  
 
CITY SKY/WX TMP DP RH WIND PRES REMARKS
 
CHANUTE PTSUNNY 74 66 76 S21G26 29.64S  
COFFEYVILLE CLOUDY 75 64 68 S16G29 29.65F  
HUTCHINSON CLOUDY 56 49 77 W22G30 29.67R  
NEWTON CLOUDY 61 58 90 NW17 29.63R  
PARSONS CLOUDY 74 66 76 S17G26 29.66S  
WICHITA INTL CLOUDY 62 56 80 W21G31 29.64R  
WICHITA JABRA MOSUNNY 67 57 70 W13G29 29.62R  
WINFIELD PTSUNNY 73 62 68 SW21G29 29.65R  

 
 
KSZ007>012-019>026-033>040-048>060-102>105-241700-  
NORTHEAST KANSAS  
 
CITY SKY/WX TMP DP RH WIND PRES REMARKS
 
CONCORDIA LGT RAIN 48 47 96 NW18G25 29.64R FOG  
EMPORIA CLOUDY 75 65 70 SW29G38 29.57S  
LAWRENCE CLOUDY 72 67 84 S13G22 29.57F  
MANHATTAN PTSUNNY 72 60 66 SW9 29.50F  
OLATHE IND CLOUDY 70 64 81 S16G29 29.60F  
OLATHE EXE CLOUDY 70 65 84 S13G24 29.60F  
SALINA CLOUDY 51 48 89 NW22G38 29.63R  
TOPEKA BILLARD LGT RAIN 72 66 81 S12G18 29.56F  
TOPEKA FORBES CLOUDY 72 66 81 S15 29.56F  

 
 
 
CLICK HERE TO GO TO PREVIOUS BULLETINS.

The Nexlab KS Page Main Text Page